Вернуться в каталог

EGYPTSAT 2

АктивенНаукаLEO
NORAD 39678·PAYLOAD·🇪🇬 Egypt

Запущен Apr 16, 2014 с Baikonur Cosmodrome

Loading…

Ближайшие Пролёты (ближайшие 24 часа)

TLE

СвежийSource: Space-Track

Эпоха: Sep 14, 2026, 09:14 UTC

1 39678U 14021A   26257.38483379  .00000032  00000-0  47952-4 0  9994
2 39678  51.6171 149.6263 0000571 122.2526 237.8477 14.56099240656218

Отслеживайте EGYPTSAT 2 в реальном времени с AllMySat

Download on the App Store